ATLAS CENTAUR 2 DEB, 698

Orbit data source: Space-Track

ATLAS CENTAUR 2 DEB, 698 is space debris in LEO originally from a launch on Wed, 27 Nov 1963 UTC launched from the Air Force Eastern Test Range (AFETR). Debris objects in space refer to the collection of defunct objects orbiting the Earth. Examples of debris include non-operational satellites, rocket bodies, and fragments generated from explosions, collisions, or faulty payload assembly.

Loading next visibility...
Identifier
698, 1963-047D
Orbit
LEO
Last TLE update
18 hours ago
Origin
Manufacturer
GD/Convair
Mission
Spacecraft
Bus & Motor
CENTAUR PART, Unknown motor
Mass
Unknown
Launch date (UTC)
1963-11-27 (61 years ago)
Launch vehicle
Unknown
Launch site
Air Force Eastern Test Range (AFETR)
Object type
Payload
Rocket body
Debris
Shape & HBR
Unknown
Radar Cross Section
0.300 m², Medium (>0.1 m² and < 1m²)

Expand to show TLE details & history

TLE from 18 hours ago
0 ATLAS CENTAUR 2 DEB
1 00698U 63047D   25128.49049756  .00000510  00000-0  16524-3 0  9992
2 00698  29.9235 295.7651 0532288 359.1706   0.7974 13.73456448 23365
Epoch: 2025-05-08T11:46Z
Definitive object data (Epoch: 2025-05-08T11:46:18.989Z)
Latitude
-0.00001°
Longitude
-107.37428°
Altitude
593.779 km
Speed
7.763 km/s
True Right ascension
19h 43m 03s
True Declination
0° 00' 00"
Sunlit
Object was in daylight at TLE epoch
Visualization TLE readout
Latitude
28.88547°
Longitude
-38.82464°
Altitude
829.997 km
Speed
7.521 km/s
Apparent Right ascension
00h 54m 06s
Apparent Declination
-3° 09' 04"
Sunlit
Object is in daylight
Visualization observer readout
Local Sidereal Time
13:41:46
Azimuth
19.419° NNE
Elevation
-51.684°
Doppler factor
1
Orbital elements
Apogee altitude
1,383.206 km
Perigee altitude
598.709 km
Semi-major axis
7,369.095 km
Eccentricity
0.0532288
Inclination
29.9235°
RAAN
295.7651°
Arg. of periapsis
359.1706°
True anomaly
0.88832°
Mean anomaly
0.7974°
Eccentric anomaly
0.84223°
Mean motion
3.43101 °/min
BSTAR
0.00016524
Orbital period
104.93 mins
Loading maneuver chart data...
Loading SW <> Apogee altitude chart data...

ATLAS CENTAUR 2 DEB Visibility forecast

Observer location: undefined°, undefined°

Span
Click to sort rows by Start time (UTC) header in descending order
Start Az.
Max El. time (UTC)
Max El. Az.
Max El.
End time (UTC)
End Az.
8 mins2025-05-09 15:59:04.991Z212.551° SW2025-05-09 16:02:04.991Z167.159° S24.535°2025-05-09 16:07:04.991Z112.776° SE
10 mins2025-05-09 17:49:04.991Z235.368° WSW2025-05-09 17:53:04.991Z179.415° S28.173°2025-05-09 17:59:04.991Z122.936° SE
9 mins2025-05-09 19:40:04.991Z237.628° WSW2025-05-09 19:44:04.991Z195.437° SSW21.574°2025-05-09 19:49:04.991Z152.092° SSE
|